Lid_Strength_Index
3 3 4 4 4 5 5 6 9 4 4 10 8 10 9 7 8 7 8 8 10 10 9 11 10 10 9 6 7 11 10 12 15 13 8 8 9 12 13 18 18 16 17 18
3 4 4 4 4 4 6 7 7 3 4 12 11 9 8 7 8 8 8 9 9 8 10 12 9 9 6 6 8 9 10 14 17 15 12 10 12 10 10 12 14 17 18 16
3 4 4 4 4 4 5 6 10 6 6 7 10 10 10 9 6 7 7 8 8 9 10 9 10 9 7 6 7 5 8 13 15 18 14 12 13 11 10 12 17 15 14 13
4 4 4 4 4 4 5 6 8 8 11 10 10 9 9 9 9 7 7 9 9 10 12 11 11 9 8 7 5 8 9 15 13 12 11 11 11 11 10 11 11 14 13 12
5 4 4 4 4 5 5 9 10 9 10 9 10 9 10 10 9 9 9 10 9 9 11 10 11 10 10 11 8 10 9 14 13 14 11 11 12 11 10 10 11 12 13 12
5 5 4 4 4 4 7 6 6 8 10 10 11 11 11 10 9 8 7 9 10 10 9 7 7 7 7 8 9 10 11 13 15 17 12 12 16 13 12 12 11 11 15 11
7 6 5 5 5 5 6 6 6 9 12 11 11 10 9 10 10 11 8 8 9 7 5 5 6 6 7 8 8 8 12 13 13 17 15 21 13 9 10 11 10 10 10 9
7 7 7 6 6 5 7 6 7 8 12 10 10 10 10 9 9 10 9 8 6 6 7 10 12 12 12 11 9 9 9 12 15 17 18 14 13 11 12 13 13 9 10 9
8 7 7 7 7 6 7 7 6 7 10 12 9 11 9 11 11 10 9 7 6 7 9 11 15 17 13 14 12 9 9 10 14 15 18 21 14 10 8 9 15 9 9 9
8 8 8 8 8 7 8 8 7 7 10 9 9 11 11 10 10 11 10 9 9 7 11 14 15 15 10 16 15 14 14 14 16 16 17 15 10 9 7 16 15 9 8 8
8 8 8 8 8 8 8 9 7 8 10 9 8 8 10 9 9 11 9 10 9 10 13 13 13 14 12 13 12 13 15 15 16 16 17 19 8 9 13 10 8 7 7 7
8 8 8 8 7 7 7 10 7 7 9 10 7 7 7 7 7 8 7 9 9 9 11 11 11 13 12 13 16 9 15 12 14 14 14 8 7 8 7 7 8 7 8 8
8 8 8 8 8 7 7 8 8 8 10 10 9 9 6 4 4 4 8 8 6 8 6 8 10 13 11 15 14 12 10 8 12 12 9 9 8 7 6 6 7 7 7 9
8 8 8 8 8 7 7 9 8 9 10 13 11 6 7 5 5 3 3 5 4 5 5 8 10 12 8 12 11 11 9 9 11 11 9 8 8 7 6 7 6 7 7 8
8 8 8 8 7 7 7 8 8 7 10 12 11 8 6 5 4 3 3 4 5 7 8 9 10 8 9 9 9 11 9 10 12 13 8 8 8 6 6 6 8 8 9 9
8 8 8 7 7 7 9 11 6 5 6 10 14 8 8 6 4 3 4 4 5 6 8 9 8 7 8 12 13 8 7 6 7 8 6 7 6 5 5 8 8 8 8 8
8 8 8 7 7 8 11 10 7 6 6 10 12 11 7 4 4 4 5 4 6 6 7 8 8 9 8 10 12 8 7 6 6 5 6 7 6 8 7 8 7 8 8 7
8 8 8 8 7 7 9 7 5 5 7 8 13 11 9 3 7 8 5 7 6 7 7 7 9 8 8 12 9 7 6 6 6 5 6 6 7 7 8 7 9 9 9 8
8 8 7 8 8 9 6 4 3 4 7 11 11 13 13 4 6 6 6 6 10 7 9 9 8 10 12 9 8 7 7 6 6 5 6 6 8 8 9 9 9 10 9 9
8 8 9 10 7 4 4 6 8 9 8 9 12 8 10 7 8 8 8 8 10 12 9 7 10 11 7 7 6 6 6 5 6 8 8 8 9 9 10 10 10 9 9 9
9 12 12 10 5 8 9 10 11 10 12 10 9 8 9 5 9 9 7 10 10 14 11 11 12 12 9 6 6 5 4 5 5 6 6 8 9 9 9 10 10 9 10 10
11 11 9 8 9 10 12 11 9 10 11 8 8 8 8 6 5 8 8 11 10 13 8 12 13 10 7 6 6 5 5 4 6 6 7 8 9 9 9 10 10 9 9 10
9 11 11 11 11 15 14 14 12 11 7 7 7 8 8 6 6 8 10 12 13 8 12 13 11 8 6 6 5 5 4 4 5 6 6 7 9 8 9 9 10 10 11 11
11 11 17 13 13 11 10 10 10 9 7 7 6 7 8 7 9 9 12 10 10 14 15 14 10 8 6 5 5 5 5 4 5 5 6 7 9 9 9 9 10 11 12 12
12 11 16 12 10 10 9 9 10 8 7 7 7 6 7 9 10 9 10 12 14 13 14 10 8 7 6 5 5 5 5 4 5 5 6 6 8 9 9 10 11 11 12 12
11 11 13 11 11 11 10 10 10 7 8 6 6 8 10 11 10 12 13 13 14 13 10 8 7 6 6 5 5 4 4 4 5 5 5 5 7 9 10 10 11 11 12 12
12 12 10 10 9 10 10 8 8 6 7 8 8 11 12 9 12 12 11 13 12 10 9 6 6 6 5 5 4 4 4 4 4 5 5 4 5 7 9 10 11 11 12 12